Wind_Speed
75 76 67 64 67 65 66 66 65 68 68 68 69 70 64 62 57 54 48 45 45 43 45 45 45 47 46 45 41 39 39 41 44 44 43 41 33 28 28 32 31 29 33 35
74 75 73 71 73 71 69 69 66 64 64 65 63 65 63 61 56 49 47 44 44 43 41 41 40 40 42 40 40 38 39 42 43 41 40 33 30 28 30 30 29 29 33 37
71 72 74 78 77 75 73 71 66 65 64 59 58 63 56 51 51 45 43 41 37 36 38 37 37 37 39 40 39 37 40 43 40 39 35 32 32 31 27 26 27 30 34 34
54 67 69 72 79 78 77 72 67 66 63 60 57 64 55 44 42 41 38 34 31 34 34 33 34 38 40 37 33 37 38 36 37 37 32 27 23 21 22 25 26 32 31 30
35 49 53 62 70 75 73 72 69 68 64 61 58 62 49 41 41 35 30 31 34 34 33 35 38 38 34 29 34 38 33 33 37 32 23 19 18 19 20 24 27 29 28 23
17 36 42 46 56 64 67 68 65 67 66 69 55 58 46 36 34 32 34 33 33 34 34 34 31 27 30 35 33 32 33 34 32 22 19 18 18 19 21 23 25 24 21 21
19 20 30 41 47 53 63 67 65 65 68 59 56 57 33 27 34 37 35 38 33 33 29 26 24 29 27 28 29 34 34 31 22 19 18 18 18 19 22 22 20 20 19 22
13 19 17 31 41 43 50 59 63 69 66 58 56 49 33 34 28 12 30 34 33 27 26 24 25 27 27 25 29 29 25 19 18 16 18 17 18 21 21 17 17 18 21 23
3 5 11 17 28 36 43 49 52 53 59 60 57 43 38 38 35 26 8 17 24 20 22 22 25 23 21 24 20 19 16 17 15 16 16 17 19 19 14 15 16 20 19 19
15 11 12 13 15 24 35 43 46 51 54 55 53 47 44 42 36 36 36 21 22 23 23 25 22 16 17 16 12 12 13 15 13 14 16 17 15 13 14 16 18 16 16 15
14 13 13 12 10 16 24 39 45 46 49 53 51 51 50 46 39 36 34 23 21 23 24 21 19 15 14 12 12 11 13 11 12 15 15 14 11 13 15 16 15 14 12 12
9 12 12 17 22 26 28 27 40 50 51 52 52 53 53 46 42 32 31 23 25 24 19 18 16 15 14 13 12 12 12 11 13 13 12 9 12 16 15 12 12 11 10 10
11 13 14 15 18 23 26 31 37 47 55 57 56 53 53 50 48 37 38 32 26 25 20 18 15 16 12 12 10 10 11 12 10 9 9 9 12 9 12 12 10 10 8 8
15 13 14 15 16 18 24 29 33 45 56 58 57 56 49 26 32 39 46 36 33 29 23 20 17 15 10 9 8 9 11 10 7 8 8 10 10 12 14 12 9 10 7 6
21 17 15 16 17 21 22 24 33 44 54 58 57 59 52 30 31 39 38 38 37 29 25 20 17 11 10 9 8 10 10 8 6 7 8 10 11 12 12 9 7 10 7 6
22 19 18 20 21 23 23 23 26 39 53 58 59 60 48 39 39 45 46 40 35 32 27 21 13 11 10 8 9 9 8 6 7 7 9 11 12 12 9 7 8 11 8 7
19 17 21 16 18 24 20 18 22 35 53 60 62 59 47 49 46 50 46 41 38 34 30 20 16 14 10 7 9 8 5 6 6 6 9 11 12 7 5 5 7 9 9 7
6 15 19 17 22 25 19 18 21 34 51 59 62 56 55 52 50 50 49 41 37 34 29 23 17 13 11 8 6 6 6 5 5 5 8 7 2 2 2 3 4 8 9 8
3 9 14 15 15 17 16 15 16 29 48 63 66 53 60 55 53 52 49 43 37 34 30 23 21 15 12 9 7 7 5 4 4 2 4 1 4 4 2 2 4 7 9 9
13 10 12 11 10 12 8 10 11 20 35 52 58 53 61 61 57 52 47 42 39 33 27 23 21 16 13 11 9 8 6 5 3 4 4 1 4 6 5 3 1 5 10 9
8 12 11 10 7 6 5 9 11 20 31 38 47 55 68 63 58 52 50 44 39 30 28 22 23 20 16 13 10 9 8 7 5 6 4 3 4 1 5 5 4 3 8 11
9 7 7 9 9 15 8 8 13 19 20 28 41 66 61 61 60 54 49 45 36 32 25 21 20 17 16 14 11 11 10 9 8 7 5 3 2 3 2 3 4 5 6 12
10 11 7 7 7 11 8 11 17 16 18 27 45 53 63 60 62 56 47 43 39 32 25 20 19 15 18 16 11 12 12 10 9 8 6 5 4 6 6 5 5 5 7 13
10 8 10 7 8 15 9 16 9 17 17 33 35 47 61 60 52 50 46 41 42 39 27 24 19 17 20 16 12 13 12 11 9 8 8 7 6 8 6 4 1 4 8 12
9 8 7 3 2 13 15 13 9 25 34 32 40 45 61 61 57 47 45 38 41 35 35 32 24 20 25 19 13 13 12 10 9 9 10 9 8 8 9 10 10 9 9 11
7 9 6 7 9 14 17 8 21 28 21 33 28 44 61 57 55 45 42 40 36 47 40 35 25 22 26 21 15 12 12 11 11 11 12 10 11 11 11 16 17 12 11 12
Wind_Direction
248 247 247 248 248 246 246 247 246 245 247 247 251 255 255 257 256 256 258 260 261 263 258 259 259 258 259 263 260 263 268 271 272 275 276 280 283 283 276 279 280 277 276 284
247 245 244 241 241 242 242 242 244 245 246 250 251 254 255 255 255 255 257 255 256 259 257 255 253 252 254 256 259 263 267 267 269 273 277 280 281 271 266 274 277 271 276 285
245 240 237 237 237 237 238 240 240 242 244 246 249 250 248 248 252 255 256 259 257 258 259 258 248 244 242 247 254 262 264 266 272 275 277 283 278 266 271 271 271 274 279 283
248 230 230 233 233 234 234 237 239 240 241 244 247 250 246 246 249 253 255 256 256 254 255 249 243 242 245 250 261 261 262 269 278 279 285 281 282 278 266 267 271 276 282 288
257 235 228 227 227 231 233 233 234 238 240 240 240 249 239 245 247 249 257 252 248 248 248 238 238 245 254 261 251 255 264 273 277 284 278 274 270 264 267 273 273 281 288 291
269 233 231 236 228 228 228 230 232 234 236 238 239 246 242 244 245 244 243 248 250 249 244 241 248 253 252 247 257 263 265 274 279 273 268 267 262 270 274 276 282 286 288 290
268 266 241 227 230 227 225 225 226 230 233 234 237 241 243 242 245 236 235 237 242 248 244 243 243 243 251 257 257 258 271 273 267 259 264 260 270 279 278 281 283 285 289 294
314 248 232 228 231 229 228 226 225 229 231 229 233 234 229 229 239 256 232 232 238 245 241 237 233 238 250 255 259 270 266 262 248 255 259 269 278 278 279 281 284 291 294 292
356 208 248 229 223 225 223 226 226 228 230 226 228 225 224 227 223 223 205 212 230 223 220 221 233 248 250 260 263 263 247 240 245 254 265 275 278 279 283 286 291 297 294 283
278 185 194 188 211 226 223 220 220 223 226 223 224 222 224 224 225 225 232 226 214 213 214 223 237 238 255 252 250 236 222 232 246 260 273 272 272 280 285 291 297 294 285 279
274 215 216 213 226 204 216 217 221 219 221 221 218 220 223 227 227 225 230 224 223 211 214 229 237 241 247 232 226 238 243 243 259 268 262 264 273 280 288 293 288 278 269 278
258 249 240 226 230 228 228 213 221 216 215 214 215 216 222 221 218 214 205 206 200 207 222 232 234 236 226 234 237 240 245 255 259 256 264 272 281 288 285 273 283 260 260 283
263 246 255 236 225 238 240 239 229 218 213 210 210 204 215 219 217 212 195 185 204 220 218 226 224 226 226 232 231 233 249 256 254 264 267 283 292 280 269 277 271 251 252 265
268 252 263 247 243 244 248 241 238 229 213 209 207 208 203 202 217 214 199 204 205 206 211 212 216 218 216 236 227 240 254 257 259 261 274 291 290 282 284 288 258 239 240 243
267 252 262 259 255 248 247 254 242 231 218 208 205 209 193 189 193 185 193 182 197 204 205 206 198 203 216 210 222 241 258 261 257 266 281 297 303 296 291 268 249 230 230 226
244 245 252 260 260 252 245 246 250 232 217 205 206 207 186 184 180 176 175 187 193 198 198 195 185 184 204 207 230 243 250 247 262 270 285 305 310 305 288 261 244 224 222 214
231 251 258 248 257 253 247 254 239 229 215 209 207 208 187 188 184 177 182 186 191 195 197 188 179 186 194 216 232 235 234 255 260 274 292 309 311 296 262 242 230 220 219 216
238 252 263 270 272 270 278 261 246 220 214 212 213 211 180 186 186 181 186 185 191 191 195 193 180 186 181 216 219 218 239 244 260 281 312 328 289 204 269 235 219 207 210 208
266 274 273 277 280 274 302 260 267 215 213 205 204 200 180 184 182 183 182 187 181 193 194 187 180 188 179 190 201 225 227 225 242 322 6 312 220 221 232 224 217 213 220 216
325 327 304 293 324 351 284 255 261 218 202 210 208 190 181 183 180 180 181 179 182 188 197 183 177 181 183 178 194 221 208 207 193 101 83 65 231 224 229 221 60 225 222 209
339 317 306 319 329 14 353 278 249 212 191 200 208 184 186 180 177 178 184 174 182 197 192 182 185 182 182 175 197 204 191 192 151 132 119 60 41 228 225 235 226 247 218 206
16 352 341 345 323 336 321 284 215 192 190 196 192 184 183 177 181 183 179 177 184 191 186 189 192 185 180 180 195 189 186 171 148 143 128 82 24 0 202 219 239 245 201 191
23 20 16 354 355 351 301 224 193 193 179 181 192 187 186 184 176 180 180 179 189 191 182 193 193 190 181 181 185 183 180 163 152 151 124 78 40 70 86 85 121 166 167 173
9 2 347 351 357 23 112 133 232 197 175 163 179 185 188 184 175 180 182 191 193 191 176 194 195 194 184 178 176 181 175 160 148 150 126 101 81 85 69 50 94 165 176 171
26 44 36 358 46 65 161 169 182 156 141 160 174 184 188 186 181 183 185 189 194 197 186 196 203 192 184 175 173 177 169 158 148 146 127 120 116 101 77 75 89 99 142 159
50 52 64 78 76 88 99 87 157 146 140 144 167 183 191 186 184 187 196 204 220 190 187 190 190 189 180 174 170 169 165 159 153 141 128 131 130 122 94 78 77 97 119 124
Height
5655 5658 5675 5687 5684 5689 5693 5695 5701 5707 5712 5720 5727 5731 5743 5746 5753 5755 5763 5767 5770 5772 5776 5778 5780 5779 5781 5781 5780 5780 5780 5779 5777 5776 5775 5775 5772 5771 5770 5768 5767 5766 5764 5763
5632 5642 5656 5660 5661 5669 5674 5678 5687 5694 5700 5704 5716 5720 5730 5735 5741 5748 5752 5757 5760 5762 5765 5767 5767 5769 5772 5773 5773 5772 5771 5770 5769 5769 5769 5766 5764 5762 5761 5761 5761 5759 5757 5757
5604 5625 5631 5633 5640 5649 5658 5663 5674 5681 5687 5697 5702 5703 5718 5729 5732 5739 5744 5747 5752 5755 5757 5757 5757 5759 5761 5762 5764 5764 5762 5762 5763 5762 5760 5757 5756 5755 5755 5755 5754 5753 5752 5750
5580 5599 5606 5610 5620 5630 5639 5650 5663 5667 5677 5685 5692 5688 5705 5722 5727 5731 5735 5740 5744 5744 5746 5748 5749 5750 5753 5755 5755 5756 5756 5756 5755 5754 5753 5752 5750 5750 5749 5749 5748 5747 5745 5744
5575 5583 5586 5586 5601 5611 5629 5637 5649 5654 5664 5671 5683 5680 5706 5714 5718 5725 5730 5732 5732 5734 5735 5738 5740 5743 5747 5748 5748 5749 5750 5748 5747 5747 5747 5745 5745 5744 5744 5743 5743 5740 5738 5736
5569 5568 5571 5580 5589 5596 5613 5620 5634 5641 5650 5651 5677 5675 5695 5708 5714 5719 5719 5722 5724 5725 5728 5733 5737 5739 5739 5740 5743 5743 5742 5742 5742 5741 5740 5740 5740 5739 5739 5738 5735 5734 5733 5730
5563 5564 5568 5573 5578 5588 5595 5605 5619 5627 5630 5654 5661 5667 5692 5701 5702 5706 5710 5712 5716 5718 5724 5728 5730 5732 5734 5736 5737 5737 5736 5736 5736 5736 5736 5735 5734 5734 5733 5733 5731 5729 5727 5725
5560 5558 5560 5567 5573 5584 5590 5597 5607 5615 5628 5646 5653 5664 5683 5691 5697 5697 5701 5705 5709 5713 5718 5722 5725 5726 5728 5730 5731 5731 5731 5730 5731 5731 5730 5729 5729 5729 5728 5728 5726 5724 5722 5719
5559 5560 5560 5561 5569 5575 5582 5587 5608 5607 5615 5638 5644 5665 5674 5680 5691 5695 5696 5698 5702 5707 5712 5716 5717 5720 5723 5724 5724 5723 5723 5725 5726 5725 5725 5725 5724 5724 5723 5722 5720 5718 5716 5714
5560 5561 5563 5562 5565 5569 5575 5585 5589 5595 5612 5630 5643 5655 5662 5670 5678 5684 5690 5696 5697 5703 5707 5709 5712 5716 5718 5718 5718 5719 5719 5720 5720 5721 5721 5721 5720 5719 5718 5717 5714 5713 5711 5710
5558 5560 5563 5562 5563 5564 5569 5573 5580 5592 5605 5620 5635 5646 5652 5660 5670 5678 5683 5690 5696 5699 5702 5705 5709 5712 5714 5714 5715 5716 5717 5716 5717 5717 5718 5717 5716 5716 5714 5712 5710 5709 5708 5706
5557 5557 5559 5561 5561 5564 5564 5569 5573 5580 5598 5610 5622 5636 5641 5652 5662 5670 5676 5685 5690 5694 5698 5702 5706 5707 5709 5710 5710 5712 5713 5713 5714 5714 5715 5714 5713 5711 5709 5708 5707 5706 5705 5704
5554 5555 5555 5555 5558 5559 5561 5566 5570 5574 5584 5596 5608 5626 5631 5643 5652 5663 5670 5679 5685 5690 5694 5698 5701 5704 5705 5706 5707 5709 5710 5710 5709 5711 5711 5710 5709 5707 5706 5706 5705 5704 5703 5702
5549 5550 5551 5552 5552 5554 5556 5559 5564 5567 5573 5588 5601 5614 5627 5637 5645 5653 5664 5674 5681 5686 5691 5694 5697 5700 5701 5703 5704 5706 5706 5706 5706 5707 5707 5706 5705 5704 5702 5702 5702 5701 5700 5699
5545 5546 5547 5547 5548 5549 5551 5554 5557 5559 5568 5579 5594 5602 5624 5633 5639 5647 5657 5668 5675 5682 5687 5691 5693 5696 5697 5699 5700 5702 5702 5703 5703 5704 5703 5702 5701 5699 5698 5698 5698 5697 5697 5697
5540 5542 5543 5543 5543 5544 5545 5547 5549 5553 5561 5574 5583 5594 5618 5627 5635 5644 5653 5661 5671 5678 5683 5687 5689 5691 5695 5696 5697 5698 5699 5700 5701 5700 5700 5698 5697 5695 5695 5695 5694 5694 5695 5696
5536 5539 5539 5541 5540 5539 5539 5540 5540 5547 5553 5564 5573 5586 5609 5620 5630 5639 5648 5658 5666 5673 5678 5682 5686 5688 5691 5693 5694 5696 5696 5697 5698 5697 5696 5695 5693 5693 5693 5693 5692 5692 5693 5694
5537 5538 5537 5538 5537 5534 5535 5533 5532 5535 5542 5552 5562 5577 5600 5612 5624 5634 5644 5654 5663 5670 5675 5678 5682 5685 5686 5690 5692 5694 5694 5695 5695 5694 5693 5691 5692 5693 5692 5691 5690 5690 5691 5693
5537 5536 5535 5534 5532 5531 5529 5526 5527 5528 5538 5546 5558 5578 5595 5606 5618 5630 5642 5651 5658 5667 5671 5672 5677 5681 5683 5685 5689 5692 5692 5693 5693 5692 5691 5691 5692 5692 5691 5690 5689 5689 5690 5692
5535 5535 5533 5531 5529 5527 5522 5521 5524 5525 5533 5543 5554 5576 5589 5600 5615 5629 5639 5648 5657 5663 5666 5671 5674 5678 5681 5683 5687 5690 5691 5691 5691 5691 5691 5691 5690 5690 5691 5690 5689 5688 5689 5691
5536 5533 5532 5529 5527 5526 5525 5523 5523 5525 5536 5541 5553 5574 5584 5596 5612 5624 5635 5644 5653 5658 5663 5670 5672 5675 5678 5681 5685 5688 5689 5691 5690 5690 5691 5691 5690 5690 5689 5689 5688 5688 5688 5690
5536 5533 5531 5529 5527 5525 5523 5522 5523 5527 5532 5542 5557 5567 5582 5597 5611 5623 5633 5643 5650 5656 5662 5668 5672 5674 5677 5680 5684 5686 5689 5689 5689 5690 5690 5690 5691 5690 5688 5688 5687 5687 5687 5689
5538 5535 5533 5531 5529 5526 5522 5521 5524 5529 5536 5545 5555 5569 5582 5595 5609 5622 5632 5640 5647 5656 5661 5667 5671 5674 5676 5680 5683 5685 5688 5688 5689 5690 5689 5690 5691 5689 5688 5688 5687 5687 5688 5689
5539 5536 5534 5533 5530 5526 5524 5524 5525 5532 5538 5548 5558 5570 5583 5596 5610 5620 5630 5638 5645 5652 5657 5664 5670 5673 5676 5679 5683 5685 5687 5687 5688 5689 5689 5691 5692 5691 5691 5689 5688 5688 5688 5690
5541 5538 5535 5532 5530 5530 5529 5530 5531 5536 5544 5553 5562 5573 5584 5597 5610 5619 5628 5636 5643 5649 5655 5663 5670 5671 5675 5678 5683 5685 5687 5687 5689 5689 5689 5691 5693 5694 5693 5691 5689 5688 5689 5691
5542 5539 5537 5534 5531 5531 5529 5532 5536 5542 5549 5556 5567 5576 5585 5598 5608 5618 5627 5635 5639 5644 5652 5662 5667 5671 5673 5676 5682 5685 5687 5687 5689 5689 5690 5692 5694 5696 5697 5695 5692 5691 5692 5693